Arbor Vitae, WI

4:17 AM CDT on April 28, 2017 (GMT -0500)
Lakeland-Lee Memorial

Weather History for KARV - November, 2012

Change the Weather History Date:

Friday, November 2, 2012

  Actual Average Record
Temperature  
Mean Temperature 32 °F -  
Max Temperature 35 °F 45 °F 68 °F (1944)
Min Temperature 26 °F 29 °F 0 °F (1951)
Degree Days  
Heating Degree Days 34    
Moisture  
Dew Point 23 °F    
Average Humidity 70    
Maximum Humidity 80    
Minimum Humidity 56    
Precipitation  
Precipitation 0.00 in - - ()
Sea Level Pressure  
Sea Level Pressure 30.08 in    
Wind  
Wind Speed 8 mph (North)    
Max Wind Speed 13 mph    
Max Gust Speed 16 mph    
Visibility 10 miles    
Events      
Averages and records for this station are not official NWS values.
T = Trace of Precipitation, MM = Missing Value Source: NWS Daily Summary

Daily Weather History Graph

Daily Weather History Graph

Search for Another Location

Airport or City:

Trip Planner

Search our weather history database for the weather conditions in past years. The results will help you decide how hot, cold, wet, or windy it might be!

Date:

Astronomy

Nov. 02, 2012 Rise Set
Actual Time 7:41 AM CDT 5:42 PM CDT
Civil Twilight 7:10 AM CDT 6:14 PM CDT
Nautical Twilight 6:34 AM CDT 6:49 PM CDT
Astronomical Twilight 6:00 AM CDT 7:24 PM CDT
Moon 8:23 PM CDT (11/2) 11:08 AM CDT (11/2)
Length of Visible Light 11h 03m
Length of Day
10h 01m
Waning Gibbous, 87% of the Moon is Illuminated
Nov 2
Waning Gibbous
Nov 6
Last Quarter
Nov 13
New
Nov 20
First Quarter
Nov 28
Full

Hourly Weather History & Observations

Time (CDT) Temp. Windchill Dew Point Humidity Pressure Visibility Wind Dir Wind Speed Gust Speed Precip Events Conditions
12:15 AM 33.8 °F 27.0 °F 26.6 °F 75% 29.96 in 10.0 mi North 8.1 mph - N/A   Overcast
12:35 AM 33.8 °F 25.8 °F 26.6 °F 75% 29.96 in 10.0 mi North 10.4 mph 16.1 mph N/A   Overcast
12:55 AM 32.0 °F 23.6 °F 24.8 °F 75% 29.96 in 10.0 mi North 10.4 mph 16.1 mph N/A   Overcast
1:15 AM 32.0 °F 23.6 °F 26.6 °F 80% 29.98 in 10.0 mi North 10.4 mph - N/A   Overcast
1:35 AM 32.0 °F 24.2 °F 24.8 °F 75% 29.98 in 10.0 mi North 9.2 mph - N/A   Overcast
1:55 AM 32.0 °F 24.8 °F 24.8 °F 75% 29.99 in 10.0 mi North 8.1 mph 16.1 mph N/A   Overcast
2:15 AM 32.0 °F 23.0 °F 24.8 °F 75% 29.99 in 10.0 mi North 11.5 mph - N/A   Overcast
2:35 AM 32.0 °F 22.5 °F 23.0 °F 69% 29.99 in 10.0 mi North 12.7 mph - N/A   Overcast
2:55 AM 32.0 °F 23.6 °F 23.0 °F 69% 30.00 in 10.0 mi North 10.4 mph - N/A   Overcast
3:15 AM 32.0 °F 24.2 °F 23.0 °F 69% 30.00 in 10.0 mi North 9.2 mph - N/A   Overcast
3:35 AM 32.0 °F 23.6 °F 23.0 °F 69% 30.00 in 10.0 mi North 10.4 mph - N/A   Overcast
3:55 AM 32.0 °F 24.2 °F 23.0 °F 69% 30.00 in 10.0 mi North 9.2 mph - N/A   Overcast
4:15 AM 32.0 °F 24.2 °F 23.0 °F 69% 30.01 in 10.0 mi North 9.2 mph - N/A   Overcast
4:35 AM 32.0 °F 24.8 °F 23.0 °F 69% 30.01 in 10.0 mi North 8.1 mph - N/A   Mostly Cloudy
4:55 AM 32.0 °F 24.8 °F 23.0 °F 69% 30.01 in 10.0 mi North 8.1 mph - N/A   Overcast
5:15 AM 32.0 °F 24.2 °F 23.0 °F 69% 30.01 in 10.0 mi North 9.2 mph - N/A   Mostly Cloudy
5:35 AM 32.0 °F 24.8 °F 24.8 °F 75% 30.01 in 10.0 mi North 8.1 mph - N/A   Mostly Cloudy
5:55 AM 30.2 °F 22.6 °F 23.0 °F 75% 30.01 in 10.0 mi North 8.1 mph - N/A   Scattered Clouds
6:15 AM 28.4 °F 21.2 °F 21.2 °F 74% 30.02 in 10.0 mi North 6.9 mph - N/A   Clear
6:35 AM 30.2 °F 21.9 °F 23.0 °F 75% 30.02 in 10.0 mi North 9.2 mph - N/A   Clear
6:55 AM 28.4 °F 21.2 °F 21.2 °F 74% 30.03 in 10.0 mi NNW 6.9 mph - N/A   Scattered Clouds
7:15 AM 30.2 °F 22.6 °F 23.0 °F 75% 30.03 in 10.0 mi North 8.1 mph - N/A   Mostly Cloudy
7:35 AM 30.2 °F 21.9 °F 23.0 °F 75% 30.04 in 10.0 mi NNW 9.2 mph - N/A   Scattered Clouds
7:55 AM 30.2 °F 23.4 °F 23.0 °F 75% 30.05 in 10.0 mi NNW 6.9 mph - N/A   Mostly Cloudy
8:15 AM 30.2 °F 24.3 °F 23.0 °F 75% 30.05 in 10.0 mi NNW 5.8 mph - N/A   Mostly Cloudy
8:35 AM 30.2 °F 22.6 °F 23.0 °F 75% 30.06 in 10.0 mi North 8.1 mph - N/A   Scattered Clouds
8:55 AM 30.2 °F 21.3 °F 23.0 °F 75% 30.06 in 10.0 mi North 10.4 mph - N/A   Clear
9:15 AM 32.0 °F 24.8 °F 24.8 °F 75% 30.06 in 10.0 mi North 8.1 mph - N/A   Clear
9:35 AM 32.0 °F 23.0 °F 24.8 °F 75% 30.08 in 10.0 mi North 11.5 mph - N/A   Clear
9:55 AM 32.0 °F 23.0 °F 23.0 °F 69% 30.08 in 10.0 mi North 11.5 mph - N/A   Clear
10:15 AM 32.0 °F 23.6 °F 23.0 °F 69% 30.08 in 10.0 mi NNE 10.4 mph - N/A   Clear
10:35 AM 32.0 °F 25.6 °F 23.0 °F 69% 30.08 in 10.0 mi North 6.9 mph - N/A   Clear
10:55 AM 33.8 °F 27.0 °F 23.0 °F 65% 30.09 in 10.0 mi North 8.1 mph - N/A   Clear
11:15 AM 33.8 °F 27.0 °F 23.0 °F 65% 30.09 in 10.0 mi NNE 8.1 mph - N/A   Clear
11:35 AM 33.8 °F 27.0 °F 23.0 °F 65% 30.10 in 10.0 mi NNE 8.1 mph - N/A   Clear
11:55 AM 35.6 °F 28.6 °F 24.8 °F 65% 30.09 in 10.0 mi NNW 9.2 mph - N/A   Clear
12:15 PM 35.6 °F 29.2 °F 23.0 °F 60% 30.10 in 10.0 mi NNE 8.1 mph - N/A   Clear
12:35 PM 35.6 °F 30.7 °F 24.8 °F 65% 30.10 in 10.0 mi NNE 5.8 mph - N/A   Clear
12:55 PM 35.6 °F 31.7 °F 23.0 °F 60% 30.10 in 10.0 mi NNE 4.6 mph - N/A   Clear
1:15 PM 35.6 °F 29.2 °F 23.0 °F 60% 30.10 in 10.0 mi NNE 8.1 mph - N/A   Clear
1:35 PM 35.6 °F 31.7 °F 23.0 °F 60% 30.10 in 10.0 mi NNE 4.6 mph - N/A   Clear
1:55 PM 35.6 °F 32.8 °F 23.0 °F 60% 30.10 in 10.0 mi NE 3.5 mph - N/A   Clear
2:15 PM 35.6 °F 29.2 °F 23.0 °F 60% 30.10 in 10.0 mi NNE 8.1 mph - N/A   Clear
2:35 PM 35.6 °F 30.7 °F 23.0 °F 60% 30.10 in 10.0 mi NNE 5.8 mph - N/A   Clear
2:55 PM 35.6 °F 31.7 °F 23.0 °F 60% 30.10 in 10.0 mi North 4.6 mph - N/A   Clear
3:15 PM 35.6 °F 31.7 °F 21.2 °F 56% 30.10 in 10.0 mi North 4.6 mph - N/A   Clear
3:35 PM 35.6 °F 29.2 °F 23.0 °F 60% 30.10 in 10.0 mi North 8.1 mph - N/A   Clear
3:55 PM 35.6 °F 29.2 °F 23.0 °F 60% 30.10 in 10.0 mi NE 8.1 mph - N/A   Clear
4:15 PM 35.6 °F 29.2 °F 23.0 °F 60% 30.10 in 10.0 mi NE 8.1 mph - N/A   Clear
4:35 PM 35.6 °F 29.2 °F 23.0 °F 60% 30.10 in 10.0 mi ENE 8.1 mph - N/A   Clear
4:55 PM 35.6 °F 32.8 °F 24.8 °F 65% 30.10 in 10.0 mi NNE 3.5 mph - N/A   Clear
5:15 PM 33.8 °F 28.6 °F 23.0 °F 65% 30.11 in 10.0 mi NNE 5.8 mph - N/A   Clear
5:35 PM 32.0 °F 27.5 °F 23.0 °F 69% 30.12 in 10.0 mi NNE 4.6 mph - N/A   Clear
5:55 PM 32.0 °F - 23.0 °F 69% 30.12 in 10.0 mi Calm Calm - N/A   Clear
6:15 PM 32.0 °F - 21.2 °F 64% 30.13 in 10.0 mi Calm Calm - N/A   Clear
6:35 PM 32.0 °F - 23.0 °F 69% 30.13 in 10.0 mi Calm Calm - N/A   Clear
6:55 PM 32.0 °F 28.7 °F 23.0 °F 69% 30.13 in 10.0 mi NNE 3.5 mph - N/A   Clear
7:15 PM 32.0 °F 28.7 °F 23.0 °F 69% 30.14 in 10.0 mi NE 3.5 mph - N/A   Clear
7:35 PM 32.0 °F 28.7 °F 23.0 °F 69% 30.13 in 10.0 mi NNE 3.5 mph - N/A   Clear
7:55 PM 32.0 °F 27.5 °F 24.8 °F 75% 30.13 in 10.0 mi NE 4.6 mph - N/A   Clear
8:15 PM 32.0 °F 26.4 °F 24.8 °F 75% 30.13 in 10.0 mi NE 5.8 mph - N/A   Clear
8:35 PM 32.0 °F 28.7 °F 24.8 °F 75% 30.14 in 10.0 mi NE 3.5 mph - N/A   Clear
8:55 PM 30.2 °F 26.7 °F 23.0 °F 75% 30.14 in 10.0 mi NE 3.5 mph - N/A   Clear
9:15 PM 30.2 °F 25.4 °F 23.0 °F 75% 30.14 in 10.0 mi NE 4.6 mph - N/A   Clear
9:35 PM 30.2 °F - 23.0 °F 75% 30.15 in 10.0 mi Calm Calm - N/A   Clear
9:55 PM 30.2 °F - 23.0 °F 75% 30.15 in 10.0 mi Calm Calm - N/A   Clear
10:15 PM 30.2 °F - 23.0 °F 75% 30.15 in 10.0 mi Calm Calm - N/A   Clear
10:35 PM 28.4 °F - 23.0 °F 80% 30.15 in 10.0 mi Calm Calm - N/A   Clear
10:55 PM 28.4 °F - 21.2 °F 74% 30.16 in 10.0 mi Calm Calm - N/A   Clear
11:15 PM 28.4 °F - 21.2 °F 74% 30.16 in 10.0 mi Calm Calm - N/A   Clear
11:35 PM 28.4 °F - 23.0 °F 80% 30.17 in 10.0 mi Calm Calm - N/A   Clear
11:55 PM 26.6 °F - 21.2 °F 80% 30.17 in 10.0 mi Calm Calm - N/A   Clear